FW3884 Weather Reports


time (UTC)temp
F
wind
direction
speed
knots
gust
knots
rain 1hr
in
rain 24hr
in
rain mn
in
humidity
%
barometer
mb
20260504081523 46 0.0 0.0 0.00 0.00 0.00 60 1016.0
20260504050009 49 0.0 0.0 0.00 0.00 0.00 51 1016.5
20260504044509 49 0.0 0.0 0.00 0.00 0.00 48 1016.5
20260504043004 48 0.0 0.0 0.00 0.00 0.00 48 1016.6
20260504041600 47 0.0 0.0 0.00 0.00 0.00 51 1016.5
20260504040132 47 0.0 0.0 0.00 0.00 0.00 53 1016.8
20260504034602 47 0.0 0.0 0.00 0.00 0.00 49 1016.8
20260504033056 48 0.0 0.0 0.00 0.00 0.00 49 1016.7
20260504031606 47 0.0 0.0 0.00 0.00 0.00 49 1016.6
20260504030155 47 0.0 0.0 0.00 0.00 0.00 51 1016.7
20260504024557 47 0.0 0.0 0.00 0.00 0.00 52 1016.8
20260504023053 47 0.0 0.0 0.00 0.00 0.00 51 1016.7
20260504021554 47 0.0 0.0 0.00 0.00 0.00 51 1016.5
20260504020107 47 0.0 0.0 0.00 0.00 0.00 54 1016.7
20260504014553 47 0.0 0.0 0.00 0.00 0.00 55 1016.4
20260504013052 48 0.0 0.0 0.00 0.00 0.00 51 1016.1
20260504011552 49 0.0 0.0 0.00 0.00 0.00 51 1016.2
20260504010054 50 0.0 0.0 0.00 0.00 0.00 49 1016.0
20260504004550 51 0.0 0.0 0.00 0.00 0.00 47 1015.8
20260504003053 51 0.0 0.0 0.00 0.00 0.00 46 1016.0
20260504001554 52 0.0 0.0 0.00 0.00 0.00 44 1015.7
20260504000051 54 0.0 0.0 0.00 0.00 0.00 45 1015.7
20260503234608 54 0.0 0.0 0.00 0.00 0.00 40 1015.5
20260503233050 55 0.0 0.0 0.00 0.00 0.00 40 1015.3
20260503231547 56 0.0 0.0 0.00 0.00 0.00 36 1015.2
20260503230051 56 0.0 0.0 0.00 0.00 0.00 34 1015.2
20260503224546 57 0.0 0.0 0.00 0.00 0.00 33 1015.3
20260503223046 57 0.0 0.0 0.00 0.00 0.00 32 1015.4
20260503221555 59 0.0 0.0 0.00 0.00 0.00 32 1015.4
20260503220046 61 0.0 0.0 0.00 0.00 0.00 29 1015.5
20260503214544 62 0.0 0.0 0.00 0.00 0.00 30 1015.8
20260503213045 62 0.0 0.0 0.00 0.00 0.00 32 1015.8
20260503211541 61 0.0 0.0 0.00 0.00 0.00 31 1015.9
20260503210041 61 0.0 0.0 0.00 0.00 0.00 30 1016.0
20260503204543 60 0.0 0.0 0.00 0.00 0.00 30 1016.2
20260503203053 60 0.0 0.0 0.00 0.00 0.00 30 1016.2
20260503201540 60 0.0 0.0 0.00 0.00 0.00 29 1016.4
20260503200039 60 0.0 0.0 0.00 0.00 0.00 28 1016.6
20260503194541 60 0.0 0.0 0.00 0.00 0.00 32 1016.9
20260503193038 60 0.0 0.0 0.00 0.00 0.00 31 1016.9
20260503191537 60 0.0 0.0 0.00 0.00 0.00 31 1017.2
20260503190035 59 0.0 0.0 0.00 0.00 0.00 35 1017.2
20260503184535 58 0.0 0.0 0.00 0.00 0.00 31 1017.4
20260503183034 59 0.0 0.0 0.00 0.00 0.00 31 1017.6
20260503181532 59 0.0 0.0 0.00 0.00 0.00 32 1017.8
20260503180031 57 0.0 0.0 0.00 0.00 0.00 33 1017.7
20260503174529 57 0.0 0.0 0.00 0.00 0.00 33 1017.9
20260503173029 57 0.0 0.0 0.00 0.00 0.00 35 1018.0
20260503171527 57 0.0 0.0 0.00 0.00 0.00 34 1018.1